N4DRV Weather Reports


time (UTC)temp
F
wind
direction
speed
knots
gust
knots
rain 1hr
in
rain 24hr
in
rain mn
in
humidity
%
barometer
mb
20260504110612 41 283 0.0 0.0 0.00 0.00 0.00 95 1019.1
20260504100605 42 283 0.0 0.0 0.00 0.00 0.00 94 1018.9
20260504081526 43 283 0.0 0.0 0.00 0.00 0.00 93 1018.8
20260504080545 44 283 0.0 0.0 0.00 0.00 0.00 93 1018.8
20260504050559 47 283 0.0 0.0 0.00 0.00 0.00 89 1019.7
20260504045536 47 283 0.0 0.0 0.00 0.00 0.00 89 1019.6
20260504044535 48 283 0.0 0.0 0.00 0.00 0.00 88 1019.7
20260504043533 48 283 0.0 0.0 0.00 0.00 0.00 87 1019.6
20260504042531 48 283 0.0 0.0 0.00 0.00 0.00 87 1019.5
20260504041533 48 283 0.0 0.0 0.00 0.00 0.00 86 1019.6
20260504040612 49 283 0.0 0.0 0.00 0.00 0.00 86 1019.6
20260504035525 49 283 0.0 0.0 0.00 0.00 0.00 85 1019.6
20260504034527 50 283 0.0 0.0 0.00 0.00 0.00 84 1019.7
20260504033526 50 283 0.0 0.0 0.00 0.00 0.00 83 1019.6
20260504032524 50 283 0.0 0.0 0.00 0.00 0.00 83 1019.7
20260504031526 51 283 0.0 0.0 0.00 0.00 0.00 82 1019.7
20260504030605 51 283 0.0 0.0 0.00 0.00 0.00 81 1019.6
20260504025518 52 283 0.0 0.0 0.00 0.00 0.00 79 1019.6
20260504024536 52 283 0.0 0.0 0.00 0.00 0.00 79 1019.7
20260504023519 52 283 0.0 0.0 0.00 0.00 0.00 78 1019.7
20260504022558 53 283 0.0 0.0 0.00 0.00 0.00 77 1019.5
20260504021535 53 283 0.0 0.0 0.00 0.00 0.00 76 1019.4
20260504020614 54 283 0.0 0.0 0.00 0.00 0.00 74 1019.3
20260504015531 54 283 0.0 0.0 0.00 0.00 0.00 73 1019.1
20260504014529 55 283 0.0 0.0 0.00 0.00 0.00 72 1018.8
20260504013528 56 283 0.0 0.0 0.00 0.00 0.00 70 1018.8
20260504012530 57 283 0.0 0.0 0.00 0.00 0.00 68 1018.7
20260504011527 57 283 0.0 0.0 0.00 0.00 0.00 66 1018.7
20260504010547 58 283 0.0 0.0 0.00 0.00 0.00 65 1018.7
20260504005525 59 283 0.0 0.0 0.00 0.00 0.00 62 1018.6
20260504004523 61 283 0.0 0.0 0.00 0.00 0.00 61 1018.5
20260504003543 62 283 0.0 0.0 0.00 0.00 0.00 56 1018.3
20260504002519 63 283 0.0 0.0 0.00 0.00 0.00 54 1018.2
20260504001521 65 283 0.0 0.0 0.00 0.00 0.00 49 1018.2
20260504000601 65 283 0.0 1.7 0.00 0.00 0.00 46 1018.2
20260503235535 66 283 0.9 2.6 0.00 0.00 0.00 45 1018.2
20260503234553 66 283 0.9 3.5 0.00 0.00 0.00 45 1018.1
20260503233536 67 285 1.7 5.2 0.00 0.00 0.00 44 1018.2
20260503232533 67 285 0.9 3.5 0.00 0.00 0.00 44 1018.1
20260503231532 67 266 2.6 5.2 0.00 0.00 0.00 46 1018.1
20260503230555 68 289 1.7 2.6 0.00 0.00 0.00 46 1018.2
20260503225528 68 289 2.6 4.3 0.00 0.00 0.00 45 1018.3
20260503224526 68 285 1.7 5.2 0.00 0.00 0.00 45 1018.3
20260503223530 68 277 3.5 6.1 0.00 0.00 0.00 44 1018.3
20260503222527 68 266 0.9 3.5 0.00 0.00 0.00 44 1018.4
20260503221525 68 262 1.7 6.1 0.00 0.00 0.00 43 1018.4
20260503220549 68 271 2.6 6.1 0.00 0.00 0.00 41 1018.5
20260503215522 68 287 2.6 6.1 0.00 0.00 0.00 43 1018.5
20260503214521 69 266 3.5 7.0 0.00 0.00 0.00 45 1018.5
20260503213520 68 291 1.7 3.5 0.00 0.00 0.00 47 1018.5
20260503212521 68 265 2.6 5.2 0.00 0.00 0.00 47 1018.6
20260503211540 68 280 1.7 5.2 0.00 0.00 0.00 46 1018.6
20260503210559 68 268 0.9 2.6 0.00 0.00 0.00 49 1018.7
20260503205536 68 268 2.6 5.2 0.00 0.00 0.00 48 1018.7
20260503204534 68 282 2.6 4.3 0.00 0.00 0.00 46 1018.9
20260503203533 68 297 2.6 3.5 0.00 0.00 0.00 46 1019.1
20260503202531 68 264 2.6 5.2 0.00 0.00 0.00 50 1019.2
20260503201533 67 292 1.7 4.3 0.00 0.00 0.00 48 1019.5
20260503200552 67 265 1.7 7.0 0.00 0.00 0.00 48 1019.7
20260503195525 66 314 0.0 3.5 0.00 0.00 0.00 45 1019.8
20260503194527 66 280 2.6 5.2 0.00 0.00 0.00 47 1020.0
20260503193526 66 279 4.3 6.1 0.00 0.00 0.00 48 1020.2
20260503192524 66 287 1.7 5.2 0.00 0.00 0.00 48 1020.3
20260503191527 65 266 2.6 7.0 0.00 0.00 0.00 51 1020.4
20260503190605 65 283 4.3 7.0 0.00 0.00 0.00 50 1020.5
20260503185539 65 320 1.7 5.2 0.00 0.00 0.00 50 1020.6
20260503184536 65 295 1.7 3.5 0.00 0.00 0.00 51 1020.7
20260503183540 64 262 1.7 3.5 0.00 0.00 0.00 52 1020.9
20260503182517 64 295 4.3 7.0 0.00 0.00 0.00 52 1021.0
20260503181535 64 274 2.6 4.3 0.00 0.00 0.00 49 1021.0
20260503180554 63 261 1.7 4.3 0.00 0.00 0.00 51 1021.0
20260503175532 63 296 1.7 4.3 0.00 0.00 0.00 50 1021.1
20260503174530 63 264 2.6 5.2 0.00 0.00 0.00 52 1021.1
20260503173529 63 270 1.7 3.5 0.00 0.00 0.00 53 1021.3
20260503172531 63 257 1.7 3.5 0.00 0.00 0.00 52 1021.4
20260503171529 63 268 1.7 5.2 0.00 0.00 0.00 52 1021.5
20260503170548 63 278 1.7 3.5 0.00 0.00 0.00 53 1021.5
20260503150556 60 264 1.7 5.2 0.00 0.00 0.00 58 1022.4
20260503130558 50 348 0.0 0.0 0.00 0.00 0.00 84 1021.9